Weather History for Batman, Turkey

Change the Weather History Date:

Wednesday, July 3, 2013

  Actual Average (LTCC) Record (LTCC)
Temperature  
Mean Temperature 82 °F -  
Max Temperature 98 °F 97 °F 104 °F (1996)
Min Temperature 66 °F 68 °F 58 °F (2012)
Cooling Degree Days 17    
Growing Degree Days 32 (Base 50)    
Moisture  
Dew Point 45 °F    
Average Humidity 29    
Maximum Humidity 56    
Minimum Humidity 10    
Precipitation  
Precipitation 0.00 in - - ()
Sea Level Pressure  
Sea Level Pressure 29.61 in    
Wind  
Wind Speed 5 mph ()    
Max Wind Speed 9 mph    
Max Gust Speed -    
Visibility 6.2 miles    
Events      
Averages and records for this station are not official NWS values.
T = Trace of Precipitation, MM = Missing Value Source: Averaged Metar Reports

Daily Weather History Graph

Daily Weather History Graph

Search for Another Location

Airport:

Trip Planner

Search our weather history database for the weather conditions in past years. The results will help you decide how hot, cold, wet, or windy it might be!

Date:

Astronomy

Jul. 03, 2013 Rise Set
Actual Time 4:57 AM EEST 7:41 PM EEST
Civil Twilight 4:26 AM EEST 8:12 PM EEST
Nautical Twilight 3:47 AM EEST 8:51 PM EEST
Astronomical Twilight 3:03 AM EEST 9:35 PM EEST
Moon 1:20 AM EEST (7/3) 3:33 PM EEST (7/3)
Length of Visible Light 15h 46m
Length of Day
14h 43m
Waning Crescent, 21% of the Moon is Illuminated
Jul 3
Waning Crescent
Jul 8
New
Jul 16
First Quarter
Jul 22
Full
Jul 29
Last Quarter

Hourly Weather History & Observations

Time (EEST) Temp. Dew Point Humidity Pressure Visibility Wind Dir Wind Speed Gust Speed Precip Events Conditions
12:20 AM 71.6 °F 46.4 °F 41% 29.59 in - SSW 8.1 mph - N/A   Clear
12:50 AM 71.6 °F 46.4 °F 41% 29.59 in - SW 4.6 mph - N/A   Clear
1:20 AM 71.6 °F 46.4 °F 41% 29.59 in - SSE 4.6 mph - N/A   Clear
1:50 AM 71.6 °F 46.4 °F 41% 29.59 in - South 4.6 mph - N/A   Clear
2:20 AM 71.6 °F 46.4 °F 41% 29.62 in - South 4.6 mph - N/A   Clear
2:50 AM 69.8 °F 50.0 °F 49% 29.62 in - WSW 3.5 mph - N/A   Clear
3:20 AM 68.0 °F 50.0 °F 52% 29.62 in - West 3.5 mph - N/A   Clear
3:50 AM 66.2 °F 48.2 °F 52% 29.62 in - Calm Calm - N/A   Clear
4:20 AM 68.0 °F 48.2 °F 49% 29.62 in - Calm Calm - N/A   Clear
4:50 AM 66.2 °F 48.2 °F 52% 29.62 in - West 2.3 mph - N/A   Clear
5:20 AM 66.2 °F 50.0 °F 56% 29.62 in - Variable 1.2 mph - N/A   Clear
5:50 AM 66.2 °F 48.2 °F 52% 29.65 in - Variable 2.3 mph - N/A   Clear
6:20 AM 69.8 °F 48.2 °F 46% 29.65 in - Variable 2.3 mph - N/A   Clear
6:50 AM 71.6 °F 48.2 °F 43% 29.65 in - SW 3.5 mph - N/A   Clear
7:20 AM 73.4 °F 50.0 °F 44% 29.65 in - SSW 5.8 mph - N/A   Clear
7:50 AM 75.2 °F 46.4 °F 36% 29.65 in - WSW 6.9 mph - N/A   Clear
8:20 AM 77.0 °F 46.4 °F 34% 29.65 in - WSW 5.8 mph - N/A   Clear
8:50 AM 80.6 °F 48.2 °F 32% 29.65 in - WSW 5.8 mph - N/A   Clear
9:20 AM 84.2 °F 48.2 °F 29% 29.65 in - WSW 6.9 mph - N/A   Clear
9:50 AM 86.0 °F 46.4 °F 25% 29.65 in - SW 5.8 mph - N/A   Clear
10:20 AM 87.8 °F 46.4 °F 24% 29.62 in - SW 6.9 mph - N/A   Clear
10:50 AM 89.6 °F 46.4 °F 22% 29.62 in - NW 5.8 mph - N/A   Clear
11:20 AM 93.2 °F 42.8 °F 17% 29.62 in - NNW 6.9 mph - N/A   Clear
11:50 AM 93.2 °F 42.8 °F 17% 29.62 in - WNW 6.9 mph - N/A   Clear
12:20 PM 95.0 °F 42.8 °F 16% 29.62 in - NW 5.8 mph - N/A   Clear
12:50 PM 96.8 °F 42.8 °F 16% 29.62 in 6.2 mi Variable 3.5 mph - N/A   Partly Cloudy
1:20 PM 96.8 °F 32.0 °F 10% 29.62 in 6.2 mi SSW 5.8 mph - N/A   Partly Cloudy
1:50 PM 96.8 °F 37.4 °F 13% 29.62 in 6.2 mi Variable 5.8 mph - N/A   Partly Cloudy
2:20 PM 96.8 °F 39.2 °F 14% 29.59 in 6.2 mi West 8.1 mph - N/A   Partly Cloudy
2:50 PM 98.6 °F 39.2 °F 13% 29.59 in 6.2 mi West 8.1 mph - N/A   Partly Cloudy
3:20 PM 98.6 °F 39.2 °F 13% 29.59 in 6.2 mi West 9.2 mph - N/A   Partly Cloudy
3:50 PM 98.6 °F 41.0 °F 14% 29.59 in 6.2 mi West 8.1 mph - N/A   Partly Cloudy
4:20 PM 98.6 °F 42.8 °F 15% 29.59 in 6.2 mi WSW 8.1 mph - N/A   Partly Cloudy
4:50 PM 98.6 °F 41.0 °F 14% 29.56 in 6.2 mi West 8.1 mph - N/A   Partly Cloudy
5:20 PM 96.8 °F 46.4 °F 18% 29.56 in 6.2 mi SSW 6.9 mph - N/A   Partly Cloudy
5:50 PM 96.8 °F 42.8 °F 16% 29.56 in 6.2 mi SSW 6.9 mph - N/A   Partly Cloudy
6:20 PM 95.0 °F 48.2 °F 20% 29.56 in 6.2 mi SSW 5.8 mph - N/A   Partly Cloudy
6:50 PM 93.2 °F 44.6 °F 19% 29.56 in 6.2 mi West 8.1 mph - N/A   Partly Cloudy
7:20 PM 93.2 °F 41.0 °F 16% 29.56 in 6.2 mi West 9.2 mph - N/A   Partly Cloudy
7:50 PM 91.4 °F 41.0 °F 17% 29.56 in 6.2 mi West 8.1 mph - N/A   Partly Cloudy
8:20 PM 89.6 °F 39.2 °F 17% 29.59 in 6.2 mi WNW 8.1 mph - N/A   Partly Cloudy
8:50 PM 87.8 °F 39.2 °F 18% 29.59 in 6.2 mi Variable 4.6 mph - N/A   Partly Cloudy
9:20 PM 84.2 °F 41.0 °F 22% 29.59 in - ENE 5.8 mph - N/A   Clear
9:50 PM 84.2 °F 39.2 °F 20% 29.59 in - Variable 2.3 mph - N/A   Clear
10:20 PM 86.0 °F 41.0 °F 20% 29.59 in - Variable 4.6 mph - N/A   Clear
10:50 PM 80.6 °F 44.6 °F 28% 29.62 in - South 3.5 mph - N/A   Clear
11:20 PM 75.2 °F 48.2 °F 38% 29.62 in - WSW 6.9 mph - N/A   Clear
11:50 PM 73.4 °F 48.2 °F 41% 29.62 in - SW 4.6 mph - N/A   Clear